FW8889 Weather Reports


Display with metric or nautical units.
time (UTC)temp
F
wind
direction
speed
MPH
gust
MPH
rain 1hr
in
rain 24hr
in
rain mn
in
humidity
%
barometer
mb
20240220213055 35 329 0.0 3.0 0.00 0.00 0.00 39 1031.6
20240220211541 36 0 0.0 3.0 0.00 0.00 0.00 38 1031.6
20240220210045 36 132 0.0 3.0 0.00 0.00 0.00 38 1031.4
20240220204549 36 318 1.0 5.0 0.00 0.00 0.00 38 1031.4
20240220203050 37 333 1.0 3.0 0.00 0.00 0.00 36 1031.6
20240220201547 37 172 0.0 4.0 0.00 0.00 0.00 38 1031.6
20240220200112 37 192 1.0 4.0 0.00 0.00 0.00 37 1031.6
20240220194549 37 180 1.0 4.0 0.00 0.00 0.00 37 1031.5
20240220193051 37 184 1.0 4.0 0.00 0.00 0.00 39 1031.4
20240220191542 36 348 1.0 5.0 0.00 0.00 0.00 40 1031.6
20240220190042 36 251 1.0 4.0 0.00 0.00 0.00 40 1031.6
20240220184544 35 171 2.0 6.0 0.00 0.00 0.00 40 1031.7
20240220183043 35 17 2.0 8.0 0.00 0.00 0.00 42 1031.9
20240220181552 34 321 1.0 7.0 0.00 0.00 0.00 43 1032.1
20240220180047 33 266 1.0 8.0 0.00 0.00 0.00 42 1032.2
20240220174546 33 292 2.0 7.0 0.00 0.00 0.00 43 1032.2
20240220173049 32 118 1.0 5.0 0.00 0.00 0.00 43 1032.2
20240220171605 31 193 2.0 4.0 0.00 0.00 0.00 42 1032.2
20240220170051 30 338 1.0 4.0 0.00 0.00 0.00 42 1032.4
20240220164559 29 206 1.0 5.0 0.00 0.00 0.00 44 1032.4
20240220163054 29 111 1.0 4.0 0.00 0.00 0.00 43 1032.5
20240220161549 29 273 1.0 4.0 0.00 0.00 0.00 44 1032.8
20240220160106 28 219 2.0 4.0 0.00 0.00 0.00 44 1032.9
20240220154547 27 183 1.0 4.0 0.00 0.00 0.00 47 1032.9
20240220153049 26 325 2.0 4.0 0.00 0.00 0.00 44 1033.1
20240220151545 26 142 0.0 4.0 0.00 0.00 0.00 46 1033.2
20240220150108 25 311 1.0 4.0 0.00 0.00 0.00 46 1033.1
20240220144546 25 0 1.0 3.0 0.00 0.00 0.00 48 1033.2
20240220143045 24 140 1.0 4.0 0.00 0.00 0.00 48 1033.4
20240220141547 23 336 0.0 4.0 0.00 0.00 0.00 49 1033.4
20240220140100 23 355 1.0 3.0 0.00 0.00 0.00 49 1033.3
20240220134542 22 0 1.0 3.0 0.00 0.00 0.00 51 1033.4
20240220133050 22 81 0.0 2.0 0.00 0.00 0.00 51 1033.1
20240220131547 21 63 0.0 4.0 0.00 0.00 0.00 55 1033.1
20240220130103 19 0 0.0 2.0 0.00 0.00 0.00 57 1032.7
20240220124555 17 0 0.0 5.0 0.00 0.00 0.00 60 1032.3
20240220123055 16 0 0.0 1.0 0.00 0.00 0.00 65 1032.0
20240220121554 16 0 0.0 1.0 0.00 0.00 0.00 65 1031.6
20240220120055 16 0 0.0 1.0 0.00 0.00 0.00 62 1031.6
20240220114557 17 0 0.0 1.0 0.00 0.00 0.00 60 1031.5
20240220113052 17 327 0.0 1.0 0.00 0.00 0.00 59 1031.1
20240220111548 17 0 0.0 3.0 0.00 0.00 0.00 59 1031.0
20240220110050 17 0 0.0 3.0 0.00 0.00 0.00 58 1030.8
20240220104545 18 0 0.0 5.0 0.00 0.00 0.00 58 1030.6
20240220103045 18 0 0.0 3.0 0.00 0.00 0.00 58 1030.4
20240220101547 18 344 0.0 3.0 0.00 0.00 0.00 57 1030.4
20240220100042 18 24 1.0 5.0 0.00 0.00 0.00 56 1030.2
20240220094544 18 314 0.0 3.0 0.00 0.00 0.00 56 1029.8
20240220093042 19 319 0.0 8.0 0.00 0.00 0.00 55 1029.7
20240220091542 19 313 1.0 4.0 0.00 0.00 0.00 56 1029.5
20240220090044 19 309 0.0 5.0 0.00 0.00 0.00 56 1029.3
20240220084542 19 0 1.0 2.0 0.00 0.00 0.00 57 1029.3
20240220083050 19 325 0.0 3.0 0.00 0.00 0.00 56 1029.3
20240220081554 20 265 0.0 3.0 0.00 0.00 0.00 58 1029.1
20240220080044 20 321 1.0 7.0 0.00 0.00 0.00 57 1029.1
20240220074548 20 51 0.0 3.0 0.00 0.00 0.00 57 1029.1
20240220073048 20 0 0.0 1.0 0.00 0.00 0.00 60 1028.9
20240220071544 20 0 0.0 2.0 0.00 0.00 0.00 57 1028.9
20240220070045 20 0 0.0 4.0 0.00 0.00 0.00 55 1028.8
20240220064551 21 44 0.0 2.0 0.00 0.00 0.00 55 1028.7
20240220063049 21 0 0.0 3.0 0.00 0.00 0.00 55 1028.7
20240220061544 21 0 0.0 2.0 0.00 0.00 0.00 54 1028.6
20240220060047 21 0 0.0 1.0 0.00 0.00 0.00 54 1028.4
20240220054549 22 0 1.0 3.0 0.00 0.00 0.00 53 1028.2
20240220053056 21 0 0.0 2.0 0.00 0.00 0.00 57 1028.0
20240220051554 21 0 0.0 2.0 0.00 0.00 0.00 59 1027.6
20240220050100 21 0 0.0 2.0 0.00 0.00 0.00 63 1027.6
20240220044550 21 0 0.0 2.0 0.00 0.00 0.00 58 1027.4
20240220043052 21 0 0.0 2.0 0.00 0.00 0.00 64 1027.1
20240220041604 21 0 0.0 1.0 0.00 0.00 0.00 65 1027.0
20240220040053 21 53 0.0 1.0 0.00 0.00 0.00 62 1026.8
20240220034558 21 0 0.0 1.0 0.00 0.00 0.00 66 1026.6
20240220033052 21 0 0.0 1.0 0.00 0.00 0.00 58 1026.4
20240220031542 22 0 0.0 1.0 0.00 0.00 0.00 61 1026.4
20240220030050 22 0 0.0 0.0 0.00 0.00 0.00 61 1026.3
20240220024552 22 0 0.0 1.0 0.00 0.00 0.00 61 1026.0
20240220023045 23 0 0.0 1.0 0.00 0.00 0.00 63 1026.0
20240220021552 23 0 0.0 0.0 0.00 0.00 0.00 57 1025.8
20240220020055 24 0 0.0 1.0 0.00 0.00 0.00 56 1025.6
20240220014554 24 0 0.0 1.0 0.00 0.00 0.00 51 1025.3
20240220013052 24 0 0.0 1.0 0.00 0.00 0.00 52 1025.2
20240220011550 25 0 0.0 2.0 0.00 0.00 0.00 58 1024.7
20240220010047 26 0 0.0 1.0 0.00 0.00 0.00 39 1024.5
20240220004544 26 0 0.0 1.0 0.00 0.00 0.00 40 1024.5
20240220003101 27 0 0.0 2.0 0.00 0.00 0.00 39 1024.2
20240220001547 27 0 0.0 1.0 0.00 0.00 0.00 43 1023.9
20240220000049 28 0 0.0 1.0 0.00 0.00 0.00 39 1023.6
20240219234554 28 0 0.0 1.0 0.00 0.00 0.00 34 1023.5
20240219233047 29 0 0.0 1.0 0.00 0.00 0.00 34 1023.2
20240219231542 29 0 0.0 2.0 0.00 0.00 0.00 33 1022.9
20240219230051 30 53 0.0 2.0 0.00 0.00 0.00 31 1022.7
20240219224551 30 0 0.0 2.0 0.00 0.00 0.00 31 1022.3
20240219223050 31 0 0.0 3.0 0.00 0.00 0.00 30 1022.0
20240219221543 32 143 0.0 2.0 0.00 0.00 0.00 30 1021.6
20240219220043 32 0 0.0 6.0 0.00 0.00 0.00 29 1021.4
20240219214545 33 0 0.0 6.0 0.00 0.00 0.00 28 1021.1